Tracking 17138 objects as of 2-July-2015
HD Live streaming from Space Station

IMS-1

Track IMS-1 now!
10-day predictions
IMS-1 is classified as:


NORAD ID: 32786
Int'l Code: 2008-021D
Perigee: 615.3 km
Apogee: 634.3 km
Inclination: 97.7 °
Period: 97.1 minutes
Semi major axis: 6995 km
RCS: 0.5386 m2 (medium)
Launch date: April 28, 2008
Source: India (IND)

IMS-1 is a small spacecraft featuring two medium- and low-resolution cameras to gather photos of locations around the world. Data from the 183-pound [83-kg] satellite's technology demonstration systems and cameras will be made available to developing nations.
Your satellite tracking list
Your tracking list is empty





NASA's NSSDC Master Catalog

Two Line Element Set (TLE):
1 32786U 08021D   15183.38362713  .00000782  00000-0  10065-3 0  9990
2 32786 097.6548 218.0388 0013615 051.5718 308.6713 14.83698461387882

Source of the keplerian elements: AFSPC

N2YO: 238